Hourly Data Report for October 17, 2014

All times are specified in Local Standard Time (LST). Add 1 hour to adjust for Daylight Saving Time where and when it is observed.

TORONTO INTL A
ONTARIO

43°40'36.000" N
79°37'50.000" W
173.40 m
6158731
71624
YYZ

Download Data

Hourly Data (October 2014)
Hourly Data Report for October 17, 2014
Temp Definition
°C
Dew Point Temp Definition
°C
Rel Hum Definition
%
Wind Dir Definition
10's deg

Wind Spd Definition
km/h
Visibility Definition
km
Stn Press Definition
kPa
Hmdx Definition


Wind Chill Definition


Weather Definition


TIME
00:00 Legend Double Dagger 12.3 10.6 89 25 12 24.1 98.30     LegendNANA
01:00 Legend Double Dagger 12.4 10.3 87 24 14 24.1 98.28     Mostly Cloudy
02:00 Legend Double Dagger 12.6 10.5 87 23 13 24.1 98.24     LegendNANA
03:00 Legend Double Dagger 12.7 10.4 86 20 11 24.1 98.19     LegendNANA
04:00 Legend Double Dagger 12.6 10.7 88 20 11 24.1 98.14     Cloudy
05:00 Legend Double Dagger 12.3 10.6 89 19 9 24.1 98.12     LegendNANA
06:00 Legend Double Dagger 11.9 10.5 91 14 8 12.9 98.11     LegendNANA
07:00 Legend Double Dagger 12.6 10.5 87 22 19 12.9 98.08     Mostly Cloudy
08:00 Legend Double Dagger 13.2 11.1 87 20 14 12.9 98.06     LegendNANA
09:00 Legend Double Dagger 13.8 11.2 84 21 19 19.3 98.07     LegendNANA
10:00 Legend Double Dagger 13.7 11.4 86 24 10 24.1 98.05     Cloudy
11:00 Legend Double Dagger 14.9 10.2 73 23 30 24.1 98.00     LegendNANA
12:00 Legend Double Dagger 16.0 9.9 67 24 27 24.1 97.92     LegendNANA
13:00 Legend Double Dagger 16.5 10.9 69 24 26 24.1 97.86     Cloudy
14:00 Legend Double Dagger 15.6 11.0 74 22 35 24.1 97.82     LegendNANA
15:00 Legend Double Dagger 15.5 11.1 75 20 26 24.1 97.81     LegendNANA
16:00 Legend Double Dagger 15.5 10.9 74 21 21 24.1 97.83     Cloudy
17:00 Legend Double Dagger 15.5 10.7 73 21 19 24.1 97.82     LegendNANA
18:00 Legend Double Dagger 14.7 11.5 81 24 26 24.1 97.83     Rain
19:00 Legend Double Dagger 14.5 10.8 78 23 19 24.1 97.83     Mostly Cloudy
20:00 Legend Double Dagger 14.3 10.6 78 23 16 24.1 97.83     LegendNANA
21:00 Legend Double Dagger 14.4 10.8 79 22 14 24.1 97.79     LegendNANA
22:00 Legend Double Dagger 13.9 10.7 81 26 32 24.1 97.81     Rain
23:00 Legend Double Dagger 12.8 9.7 81 26 19 24.1 97.81     LegendNANA

Notes on Data Quality.

Legend

  • E = Estimated
  • M = Missing
  • NA = Not Available
  • ‡ = Partner data that is not subject to review by the National Climate Archives
Date modified: